Terug naar catalogus

HAWK-14C

ActiefWetenschapSSO
NORAD 68441·PAYLOAD·🇺🇸 United States

Gelanceerd Mar 30, 2026 vanaf Vandenberg Space Force Base

Loading…

Volgende Passages (komende 24 uur)

TLE

VersSource: Space-Track

Epoch: Sep 13, 2026, 20:15 UTC

1 68441U 26067AB  26256.84384444  .00003667  00000-0  17932-3 0  9991
2 68441  97.4584 213.9287 0004372 112.1049 248.0650 15.18839567 25395

Volg HAWK-14C in realtime met AllMySat

Download on the App Store